Theta_e
315 314 312 311 309 309 310 310 310 311 311 311 311 312 312 312 312 314 320 322 318 317 318 318 318 317 319 319 315 316 315 315 315 311 310 310 306 309 307 309 308 307 306 305 306 303 301 316 314 309 317 320 320 321
315 314 312 311 309 309 309 310 310 310 310 311 311 311 312 312 311 312 318 322 320 317 318 321 321 323 321 319 318 319 316 316 318 315 314 316 308 311 308 303 313 306 311 310 309 310 316 319 319 320 320 321 321 320
315 313 312 310 309 308 309 310 309 310 310 310 311 311 311 311 311 311 315 317 320 317 316 316 314 320 323 322 323 316 320 318 319 319 319 316 309 313 305 306 310 312 313 313 311 315 316 318 321 321 322 321 320 320
315 313 311 310 309 309 309 309 309 309 309 310 310 310 310 311 311 311 314 319 317 316 309 315 321 319 322 322 322 321 319 320 320 320 316 313 309 315 310 311 310 314 314 312 312 316 317 318 319 320 319 320 320 321
314 312 310 309 309 308 308 309 309 309 309 309 310 310 310 311 311 312 315 320 321 314 310 315 319 320 320 319 319 318 318 318 317 314 312 311 315 313 316 313 309 314 312 309 310 319 319 319 320 320 319 320 321 320
312 311 309 308 308 308 308 308 308 308 309 309 309 310 309 310 310 314 316 320 323 321 314 308 317 319 317 319 318 318 320 321 319 315 315 318 317 315 309 307 315 316 317 318 317 321 321 321 322 322 320 319 319 318
311 310 308 308 308 308 308 308 308 308 308 308 309 309 309 310 311 311 313 316 312 321 314 309 310 318 317 318 318 318 320 320 317 318 313 316 316 314 311 307 317 318 320 320 322 321 318 318 319 320 319 318 317 317
310 308 308 308 308 307 307 307 307 307 308 308 309 309 310 310 309 312 319 312 313 315 316 309 309 312 317 313 313 320 315 316 315 316 315 312 315 315 308 315 319 319 320 319 319 321 320 322 320 318 318 316 313 312
308 308 308 308 307 307 307 307 307 307 308 308 309 310 314 313 314 319 313 312 320 317 310 310 305 306 316 316 318 315 317 310 317 311 312 313 310 307 312 318 318 319 319 319 320 320 319 317 316 315 314 313 311 310
307 307 307 307 306 306 306 307 307 307 308 308 313 315 312 318 312 316 317 315 316 316 314 308 316 310 314 313 312 313 314 312 308 312 315 308 308 316 318 320 323 321 322 321 318 317 317 315 314 313 311 311 309 309
307 306 307 306 306 306 306 307 307 307 309 316 314 314 317 313 317 316 310 307 309 306 311 309 310 312 317 310 311 317 312 313 305 309 308 308 308 315 322 322 324 324 323 322 322 320 318 317 314 312 309 308 309 311
305 306 306 306 306 306 306 306 307 308 308 304 304 308 314 315 312 307 306 310 308 306 310 307 307 317 314 320 314 314 310 311 303 313 308 305 315 321 321 321 323 323 321 320 320 317 316 314 312 309 308 308 310 311
304 304 304 304 305 306 306 306 307 307 307 309 305 307 312 311 296 300 299 303 306 312 314 313 306 313 314 317 316 312 306 306 313 307 306 311 319 320 322 322 322 322 321 319 317 316 315 312 310 309 309 309 309 311
304 304 304 304 305 305 306 308 309 308 305 304 304 292 303 302 303 305 306 310 313 316 315 314 309 311 316 312 314 306 310 310 303 301 303 313 320 321 323 323 322 320 320 318 316 315 313 311 310 310 311 311 309 309
303 304 304 304 306 306 308 307 308 309 305 303 304 294 301 307 311 313 314 313 314 318 314 312 311 314 311 310 311 308 304 301 303 304 311 318 322 323 323 323 322 321 320 318 316 314 311 310 310 311 314 314 311 309
302 303 304 305 305 307 306 308 307 308 305 303 303 301 306 305 307 309 311 312 317 317 317 315 310 307 307 309 305 303 301 300 307 312 316 323 323 324 324 324 323 322 321 318 316 314 311 311 311 313 314 315 313 310
301 300 304 304 304 305 308 305 306 303 302 300 300 305 306 308 309 311 313 313 316 314 309 311 305 304 312 305 303 308 304 308 312 316 320 325 324 325 325 325 323 322 320 318 316 313 313 314 314 314 313 315 315 313
299 302 302 303 304 304 307 306 304 302 297 300 299 304 307 309 310 310 312 314 313 314 314 310 315 307 304 302 304 309 313 316 319 320 322 325 326 326 325 324 324 323 320 318 316 313 314 314 314 314 316 317 314 313
301 301 301 303 302 300 300 300 304 296 298 300 303 304 305 307 309 310 311 313 314 316 315 314 309 307 308 315 313 314 316 316 317 320 323 326 326 325 326 325 324 322 319 318 315 312 313 316 315 317 317 316 312 313
302 302 302 302 302 297 297 299 305 299 296 301 303 302 305 305 309 308 309 311 312 314 309 308 309 314 315 317 321 320 318 321 320 319 321 323 324 325 325 323 321 321 318 317 316 308 314 314 315 315 316 315 312 311
300 301 301 302 300 298 298 299 299 300 302 300 304 303 303 307 304 304 304 310 309 309 309 313 314 316 318 322 323 322 322 322 320 319 320 320 323 323 323 323 323 320 316 315 313 312 308 313 315 316 315 314 316 315
299 302 301 302 297 299 298 301 299 302 300 301 301 302 300 300 303 304 308 304 305 309 312 315 318 317 317 319 320 322 324 326 326 321 313 315 321 320 321 321 320 319 317 316 314 312 313 315 316 316 315 315 309 315
300 300 298 299 294 294 293 302 296 298 295 297 300 298 299 301 305 308 302 304 305 310 312 314 318 320 319 319 320 320 321 321 319 319 321 321 322 323 322 323 322 320 318 317 316 314 314 309 311 315 316 315 313 313
300 295 294 293 294 291 298 294 298 297 297 296 296 294 297 302 306 303 300 303 306 311 310 314 313 310 313 316 314 315 317 318 317 318 320 317 317 319 322 321 322 321 322 321 317 314 315 316 311 316 316 313 313 313
289 290 292 288 295 292 292 292 294 294 292 295 294 295 297 301 297 297 297 303 307 308 312 314 312 310 308 309 311 313 318 317 314 314 317 318 317 317 320 321 320 321 324 321 317 315 315 316 317 316 315 314 313 313
286 292 289 291 292 292 292 290 292 293 294 294 295 300 301 299 295 295 302 306 310 313 315 316 316 313 311 312 311 312 313 315 315 313 316 319 319 318 318 318 317 318 324 323 317 315 314 315 315 314 314 312 302 311
286 290 296 299 296 297 296 297 297 296 294 294 297 297 298 294 294 301 309 313 312 314 317 318 318 316 315 315 318 319 318 318 317 315 318 320 321 322 322 318 317 320 323 322 318 317 315 314 314 315 312 315 315 315
294 295 290 294 296 298 293 295 293 295 298 302 303 297 295 296 300 309 313 316 316 316 315 317 318 318 318 316 321 321 322 323 323 321 321 322 323 322 324 323 322 304 320 320 319 318 318 317 316 316 315 314 315 316
294 298 297 292 294 296 295 295 295 301 306 305 301 301 302 309 312 311 313 314 314 312 311 312 313 317 318 322 323 323 320 321 318 315 313 312 315 317 320 322 320 318 318 318 301 310 318 317 317 316 315 315 316 318
293 298 295 294 293 293 298 301 301 304 306 306 307 306 306 307 310 312 312 312 310 309 311 312 314 314 314 318 319 320 323 323 321 317 313 314 316 317 318 318 317 318 319 319 318 316 299 311 308 316 315 316 315 314
300 298 295 295 295 300 302 304 305 305 305 304 306 303 303 306 309 311 311 311 311 311 311 311 312 315 315 317 319 318 319 323 324 324 324 320 318 319 317 318 319 320 320 319 317 316 315 314 315 315 314 314 314 311
298 296 296 293 296 303 304 302 302 301 302 302 302 305 306 306 304 310 317 316 313 311 309 311 312 314 318 322 323 323 304 323 323 323 322 320 320 321 320 320 320 319 319 318 316 316 316 315 316 315 314 314 316 315
298 299 299 298 298 298 303 302 301 300 302 301 302 304 304 303 301 307 316 316 317 316 315 315 318 320 321 321 322 319 309 321 316 304 302 302 305 309 318 320 320 319 318 317 316 316 317 317 318 318 316 314 314 315
Wind_Speed
10 9 8 7 7 7 9 10 11 13 15 16 18 19 19 18 18 10 3 5 6 4 2 2 3 2 1 2 4 6 5 5 4 5 4 4 6 5 6 2 4 6 5 6 7 7 12 6 7 7 6 5 6 5
11 10 9 8 7 7 8 9 10 13 14 15 16 17 17 16 17 15 3 3 4 6 6 4 7 7 5 6 4 2 5 3 4 2 2 0 5 3 6 7 4 5 4 7 6 7 4 3 5 5 5 8 6 4
12 11 9 8 8 7 8 10 10 12 13 14 15 16 16 15 14 11 6 6 5 4 5 5 5 5 4 6 6 5 2 3 3 5 2 2 5 4 6 7 2 5 2 4 5 6 6 8 7 7 7 8 6 6
12 11 10 8 8 8 8 10 11 11 13 14 14 15 15 14 13 10 5 4 5 4 5 6 2 3 1 4 6 4 3 3 3 2 3 5 6 2 3 4 7 5 6 5 4 6 6 5 6 7 7 6 6 5
13 12 10 8 8 8 8 10 10 11 12 14 15 15 15 14 13 10 3 4 3 6 5 2 2 2 3 6 6 5 5 4 3 4 5 6 2 4 2 3 7 7 4 6 3 11 1 12 8 5 5 5 6 7
13 12 10 8 7 7 8 10 10 12 13 14 15 15 15 14 11 6 5 4 2 3 5 3 4 3 4 6 7 6 3 1 3 3 3 1 2 5 4 6 5 5 5 2 5 7 10 12 9 7 6 7 7 7
13 12 10 8 7 7 8 9 10 13 14 15 16 16 15 10 6 5 6 5 4 4 5 4 4 5 4 7 4 4 3 1 3 1 4 3 4 4 5 8 10 7 7 9 12 12 10 4 7 7 6 5 2 5
13 11 9 8 6 7 7 9 11 14 15 16 17 17 13 4 7 6 2 8 7 5 4 4 3 5 7 6 6 2 4 4 4 1 2 6 4 4 5 6 9 11 11 10 8 6 11 9 6 5 4 4 3 6
12 10 8 6 6 6 7 9 12 15 17 18 18 10 4 5 4 4 5 8 4 5 4 3 4 5 6 4 2 5 3 5 3 4 3 3 6 6 3 10 12 13 9 11 10 9 8 6 5 4 3 5 6 7
8 7 7 6 5 6 7 9 13 16 18 17 6 5 5 3 4 6 5 5 6 5 5 5 1 4 6 7 6 5 4 3 4 3 3 6 7 5 5 7 11 10 11 11 9 7 6 5 5 5 5 6 6 6
5 5 6 5 5 6 7 9 12 16 13 3 3 1 4 2 5 4 4 5 5 5 6 4 6 4 3 8 7 3 4 4 4 6 5 4 5 9 8 12 11 11 9 8 9 8 7 7 6 5 5 4 4 5
2 5 5 4 5 7 8 8 9 7 4 3 4 5 4 5 4 5 5 4 6 4 6 6 7 3 4 2 3 4 3 3 3 5 4 4 6 10 13 15 13 11 11 11 9 10 9 8 7 6 5 5 5 4
2 1 1 4 6 9 11 9 7 8 7 2 3 3 4 4 2 7 9 5 5 6 6 7 8 5 4 4 1 4 6 3 4 4 4 3 9 11 13 13 13 11 11 11 10 10 10 9 7 6 6 6 4 5
1 3 5 6 8 10 12 12 6 5 3 3 4 3 7 6 6 5 4 2 5 2 6 6 8 4 2 5 2 5 3 4 5 5 5 7 12 14 13 12 12 12 10 10 10 10 10 8 7 5 5 5 5 5
3 4 6 7 7 12 10 7 7 5 3 5 4 6 7 4 1 1 1 3 4 2 5 5 4 4 5 4 3 3 5 5 5 3 2 8 14 14 13 12 11 10 9 9 9 10 9 8 6 5 3 3 5 4
5 6 1 5 9 7 2 4 5 3 3 4 5 5 4 5 5 5 5 4 3 3 3 3 4 5 6 3 6 6 4 4 3 3 6 10 14 13 12 11 10 9 9 9 9 9 8 7 5 3 3 1 2 5
4 2 5 9 12 10 5 3 4 5 5 5 5 5 6 4 3 4 2 4 1 5 8 5 6 7 3 6 6 4 4 3 4 4 6 11 14 14 12 10 10 9 9 9 9 9 8 6 5 4 3 2 3 3
2 2 8 10 10 4 4 4 3 4 7 6 4 3 5 4 2 4 3 3 3 4 4 4 2 8 5 6 7 6 4 5 3 5 7 11 12 11 10 11 10 10 9 9 10 9 8 7 6 4 1 1 5 3
3 4 6 9 7 4 2 2 3 4 4 3 4 5 4 4 3 4 3 3 3 3 4 4 5 7 5 2 4 6 5 5 6 6 8 11 12 11 10 10 10 10 10 10 10 8 7 7 3 2 1 1 3 2
9 8 6 5 4 2 4 3 2 4 3 2 3 5 4 3 0 4 5 5 5 4 4 4 6 3 3 4 1 1 3 4 7 9 9 8 9 11 11 10 9 10 9 9 9 5 6 6 5 4 2 2 3 3
3 2 5 4 3 3 4 2 4 3 1 4 3 3 4 3 6 6 6 5 6 6 6 5 4 1 2 1 2 3 5 7 8 7 9 10 9 9 9 9 10 9 9 8 8 9 5 5 3 4 5 4 1 1
2 7 2 4 3 3 3 1 2 1 2 2 1 2 3 4 5 5 3 7 7 7 4 3 3 5 4 4 3 3 5 6 4 3 4 9 10 9 9 9 10 10 9 8 8 8 8 7 5 5 4 4 3 2
2 3 3 5 4 2 1 2 2 4 4 3 4 4 5 4 3 3 5 5 5 3 6 6 3 3 2 3 3 4 5 5 5 5 6 6 6 7 9 9 9 9 9 8 8 8 8 5 6 5 5 4 3 5
4 3 2 2 3 2 3 3 3 3 3 4 4 3 4 4 3 4 5 3 5 4 4 6 6 7 7 6 6 5 5 5 5 4 4 4 5 7 7 7 8 8 9 8 9 8 8 8 6 7 6 6 6 5
2 2 2 2 3 3 4 4 5 4 5 6 4 4 4 4 4 4 4 3 3 3 1 3 5 6 8 9 9 8 7 6 6 7 6 6 6 5 6 6 5 5 7 8 10 10 10 8 7 7 7 9 10 7
3 4 4 4 3 4 4 3 5 5 4 4 5 2 3 3 4 5 3 3 3 3 3 2 2 3 6 7 8 7 7 7 6 6 7 7 7 8 8 10 10 7 8 9 10 11 8 6 7 6 6 8 12 11
2 3 4 4 3 3 3 2 2 3 4 5 4 5 4 5 5 3 4 3 4 4 3 2 0 2 4 5 5 4 5 5 7 8 10 6 5 5 6 10 10 9 11 12 10 9 9 7 6 8 8 7 9 11
2 2 2 2 4 2 4 1 2 5 4 3 2 6 3 3 2 4 2 3 2 2 3 3 4 4 3 5 6 4 4 4 5 6 4 3 2 4 5 5 7 14 11 10 9 8 6 5 7 8 7 5 5 7
4 2 3 5 5 5 5 4 4 2 1 1 2 2 2 1 1 2 1 3 4 4 5 5 5 3 5 5 6 4 4 5 9 13 14 8 7 5 6 6 8 9 8 9 4 3 5 6 7 7 6 4 4 3
3 4 4 4 4 4 4 5 4 4 3 4 4 7 8 8 8 7 6 7 7 7 7 6 6 6 5 4 6 5 4 5 8 8 9 10 11 10 6 8 10 9 7 7 8 7 4 5 4 5 4 5 3 3
1 3 4 4 4 5 5 5 6 7 8 9 9 10 11 10 10 10 10 10 10 9 9 8 8 6 7 5 4 4 3 5 7 6 5 6 8 10 10 9 9 7 7 8 8 8 9 8 7 7 5 5 6 6
4 7 5 4 4 3 4 6 7 9 9 8 9 9 5 6 6 5 1 4 6 8 7 8 7 6 6 2 3 4 4 1 7 7 9 5 8 9 9 7 7 9 8 8 8 7 9 8 7 5 3 6 7 8
6 6 6 6 4 4 2 4 4 4 3 4 4 2 1 2 4 3 2 4 5 4 6 7 6 4 4 3 3 3 2 4 5 7 8 10 10 6 7 8 8 9 9 7 7 7 8 5 0 6 3 2 3 7
Wind_Direction
228 232 246 264 281 305 319 331 339 343 344 346 349 352 352 354 356 341 331 2 329 310 302 314 343 313 197 254 250 103 197 200 204 237 264 186 261 175 254 290 258 253 252 224 244 245 241 142 150 241 64 127 115 109
227 221 235 252 266 287 308 319 329 333 336 339 342 347 348 351 353 336 280 17 320 260 346 317 299 294 319 4 320 166 15 54 24 260 219 166 212 185 267 245 179 240 298 343 324 36 92 100 48 101 100 117 109 106
224 214 221 239 255 274 299 310 323 331 332 334 336 342 343 345 349 351 311 329 259 267 233 229 198 136 233 246 272 287 145 47 121 356 348 329 251 284 238 236 222 178 203 258 219 121 116 126 112 94 84 91 79 53
221 212 213 229 247 264 285 299 313 322 326 328 330 335 335 337 339 335 303 341 279 292 281 116 155 177 311 221 228 314 69 135 94 239 242 251 257 208 268 6 264 41 169 183 122 135 141 145 121 116 106 72 44 26
211 204 209 222 245 267 285 296 307 314 319 321 322 327 328 329 330 298 247 261 279 301 331 340 177 65 174 168 180 194 193 174 199 197 221 229 54 225 190 270 242 184 184 229 4 135 21 133 120 118 89 59 33 0
195 194 204 215 238 263 285 296 307 312 316 316 314 316 319 320 326 273 215 168 195 288 271 242 85 142 120 144 147 153 142 154 258 271 242 154 57 261 238 242 82 150 181 31 122 119 102 114 104 72 67 36 18 357
185 188 198 217 240 260 278 295 307 311 313 311 309 310 309 301 282 272 358 26 343 287 258 246 182 131 178 158 147 145 157 118 286 239 234 238 188 235 257 252 132 143 121 120 124 126 127 129 99 70 45 26 35 18
174 185 199 217 237 262 282 300 309 313 312 310 307 307 299 256 254 248 133 225 235 270 256 264 164 181 195 184 166 185 174 190 173 279 188 230 142 233 252 130 146 143 134 130 123 81 95 109 94 72 66 29 22 18
171 183 198 215 238 267 288 302 311 313 311 308 306 297 201 221 221 79 99 141 221 293 288 231 235 157 175 160 127 169 239 213 99 231 211 227 197 219 230 160 165 160 159 143 125 112 113 109 107 84 55 40 8 18
172 188 209 218 238 269 290 308 314 314 308 304 265 218 192 88 353 179 183 202 199 192 222 259 85 182 214 175 180 156 201 219 220 136 129 233 237 120 142 167 162 163 141 148 144 144 142 117 102 89 60 36 19 7
185 212 212 230 258 278 296 309 319 321 274 227 250 331 20 114 220 218 213 224 167 219 198 231 229 183 179 201 169 245 167 162 237 127 242 199 229 159 157 151 148 145 134 101 94 98 92 107 121 107 73 38 19 15
180 259 211 253 282 292 297 308 319 295 28 348 307 280 259 217 215 229 203 175 223 227 160 202 175 227 128 280 211 178 203 190 246 139 233 237 102 139 151 149 143 136 128 117 116 117 116 116 106 93 69 36 24 14
110 122 275 294 301 305 301 297 300 287 282 220 222 239 209 162 230 219 191 194 209 176 164 171 160 167 153 223 147 194 199 195 136 210 230 36 131 153 151 147 141 131 125 125 126 125 125 120 111 97 79 47 24 17
276 278 271 275 284 290 291 289 267 243 228 235 194 235 224 187 234 205 224 137 76 183 155 183 143 193 130 183 150 201 81 180 220 227 217 134 159 156 156 152 147 146 146 141 140 140 134 136 127 117 88 54 27 24
19 334 305 291 288 283 279 277 208 204 257 237 211 230 217 258 273 212 92 201 153 143 153 155 157 222 153 160 218 132 187 227 225 230 114 118 156 158 157 158 154 154 150 151 150 151 150 147 152 136 98 46 39 22
341 305 179 0 338 338 183 177 172 206 242 248 243 256 224 240 198 187 187 170 142 178 179 250 158 197 189 197 193 199 210 221 158 158 98 139 154 159 158 158 160 150 156 152 156 153 155 164 172 136 161 14 29 12
316 231 356 7 344 328 217 224 192 220 239 224 223 235 281 317 287 118 193 126 134 217 198 192 194 170 129 207 193 195 212 143 123 117 130 148 158 157 157 155 153 156 157 156 157 161 162 170 169 203 276 33 339 10
249 10 338 343 339 281 172 225 234 240 235 233 242 214 209 265 243 198 183 176 254 216 250 232 52 197 194 194 204 167 160 114 100 120 136 147 153 153 154 156 157 160 157 161 165 171 175 189 212 220 210 291 258 192
271 290 303 326 340 295 198 202 254 246 245 298 259 254 254 257 241 286 273 242 247 275 278 225 233 221 180 235 133 135 142 171 157 147 136 152 154 156 157 156 157 160 162 165 173 187 185 206 266 294 264 229 338 25
293 262 262 294 301 257 230 194 212 255 230 159 269 254 246 257 169 226 226 217 218 210 202 223 242 231 233 141 175 197 143 167 158 151 153 158 161 163 169 167 170 161 164 166 183 197 183 206 208 218 215 40 331 25
280 213 203 220 195 231 279 211 179 242 273 213 172 249 262 216 234 222 218 201 220 226 218 202 214 178 336 40 161 154 153 180 189 182 169 164 172 177 170 177 173 174 180 178 185 179 229 207 171 184 172 203 143 66
261 283 213 199 229 232 252 202 319 340 255 285 179 217 267 236 211 202 211 214 233 226 229 235 201 149 153 182 141 163 141 165 153 118 140 145 171 181 182 185 185 188 192 184 186 183 184 194 195 194 200 169 205 200
207 240 235 194 237 226 275 284 254 188 230 180 168 202 208 208 192 158 234 229 232 222 225 223 177 185 214 127 136 150 166 177 166 176 160 190 182 180 193 189 192 201 192 186 188 191 196 170 176 243 198 184 202 259
138 251 257 208 219 206 200 203 221 227 230 216 207 206 195 192 150 227 239 209 215 198 198 211 231 248 236 231 241 224 212 231 230 198 199 196 187 198 214 195 195 202 200 181 187 195 206 198 198 201 214 182 205 231
239 217 241 189 197 234 210 192 193 214 221 199 210 211 185 188 216 226 227 202 188 202 208 205 229 237 240 241 240 235 217 219 217 229 208 212 227 203 189 186 194 240 189 186 185 195 206 208 200 222 201 206 215 240
250 186 208 193 202 225 194 204 200 211 196 202 214 188 185 215 224 235 171 136 131 88 67 48 335 274 236 234 250 235 222 219 225 236 244 216 231 226 197 183 173 183 212 199 188 194 202 236 232 212 234 208 234 278
243 180 182 155 264 274 248 158 252 256 209 210 183 176 187 213 212 148 121 132 88 49 26 326 295 257 295 298 289 259 260 247 238 229 227 233 241 237 215 185 199 184 180 189 192 201 203 213 283 161 213 240 229 226
296 285 236 162 225 217 279 223 200 231 217 193 217 205 221 217 100 74 137 188 14 352 322 306 282 271 255 249 243 243 248 238 224 213 194 184 238 197 208 204 169 137 169 178 191 208 224 215 216 204 202 205 197 209
237 188 243 240 237 213 230 223 233 244 14 292 271 242 245 124 120 270 212 259 278 297 282 283 288 263 246 208 218 207 231 222 198 196 199 186 165 175 196 157 149 166 166 162 92 11 181 189 186 181 186 182 170 168
221 196 241 221 242 233 211 202 234 230 221 250 280 276 271 267 267 269 256 263 269 268 256 260 269 268 257 229 236 190 199 225 229 216 183 181 154 135 164 174 163 170 173 155 155 140 92 165 155 189 208 198 171 255
223 207 257 252 256 251 244 246 246 254 258 259 257 261 272 283 284 277 263 257 254 251 247 242 241 244 245 232 229 246 201 178 212 234 281 144 166 154 169 182 167 159 162 165 168 175 173 196 199 217 198 207 162 228
213 224 242 264 271 275 275 258 252 251 255 253 251 255 263 270 271 267 262 260 243 237 227 243 239 218 203 192 102 70 4 53 167 191 187 175 141 149 151 152 163 170 161 180 181 171 178 206 215 232 253 214 204 222
233 238 247 270 252 229 190 283 275 283 308 3 357 358 248 259 268 298 252 245 276 260 198 198 210 134 128 118 120 85 284 288 35 57 55 96 114 141 156 157 163 155 169 183 188 182 194 200 108 280 273 291 259 205